P/2006 UR111 ( Spacewatch )

Japanese version
Home page
Updated on October 7, 2017

---------------------------------------------------------------------

* Profile

Discovery Date October 19, 2006
Magnitude 19.9 mag
Discoverer J. V. Scotti (Spacewatch, Kitt Peak)

* Orbital Elements

Epoch 2007 June 29.0 TT = JDT 2454280.5
T 2007 July 2.65430 TT                                  MPCW
q   2.7863366            (2000.0)            P               Q
n   0.08961929     Peri.  219.21511     +0.46670903     -0.87925146
a   4.9454034      Node   203.43841     +0.85972963     +0.47634112
e   0.4365805      Incl.   13.87592     +0.20747925     +0.00400049
P  11.00
From 48 observations 2006 Oct. 11-2017 Sept. 27, mean residual 0".3.

* Magnitudes Graph

        m1 = 12.5 + 5 log d + 10.0 log r

---------------------------------------------------------------------

The orbital elements are published on M.P.E.C. 2017-S197.
The magnitudes graphs are made with Comet for Windows.

---------------------------------------------------------------------

Copyright(C) Seiichi Yoshida (comet@aerith.net). All rights reserved.